sat.trackr.live / text

‹ back to catalog

STARLINK-31545

NORAD 59400 · 2024-064C

PAYLOAD ACTIVE UNKNOWN

§ Identity

Operator
Country
US
Launch date
2024-04-05
Launch site
AFETR
Launch vehicle
Mass (kg)
RCS (m²)

Purposes: comms

External: N2YO · Heavens-Above · Gunter

§ Orbital elements

Epoch: 2026-09-21T16:30:01.547424Z

Period
94.27 min
Inclination
43.0028°
Eccentricity
0.0001322
Mean motion
15.27574208 rev/d
Perigee alt
482.2 km
Apogee alt
484.0 km
Semi-major
6,861.2 km
B*
3.0562e-5
RAAN
29.0613°
Arg perigee
268.1847°
Mean anomaly
91.8854°
Rev number
13,920

§ Raw data

STARLINK-315451 59400U 24064C   26264.68751791  .00000579  00000+0  30562-4 0  99982 59400  43.0028  29.0613 0001322 268.1847  91.8854 15.27574208139203

JSON: /api/v1/satellites/59400 · /tle

For live sub-satellite position, see the globe view (requires WebGL).

§ Visibility from observer

Set your observer location to see the next 7 days of passes ≥ 10°. The values pass through the URL so the page stays shareable.

No JS? Fill the form by hand. The geolocation button needs JavaScript.